Вернуться в каталог

DELTA 1 R/B(1)

АктивенUNKNOWN
NORAD 10856·ROCKET BODY·🇺🇸 United States

Запущен May 11, 1978 с Cape Canaveral Space Force Station

Loading…

Ближайшие Пролёты (ближайшие 24 часа)

TLE

СвежийSource: Space-Track

Эпоха: Sep 14, 2026, 14:02 UTC

1 10856U 78044B   26257.58495179  .00000018  00000-0 -95246-3 0  9992
2 10856  27.9415 133.8770 1095448 261.3318  91.0993 10.29754749820294

Отслеживайте DELTA 1 R/B(1) в реальном времени с AllMySat

Download on the App Store